Wind_Speed
28 33 34 32 30 28 23 23 22 20 18 15 13 14 13 13 8 4 7 10 15 19 19 18 19 22 21 23 23 22 21 25 26 26 27 30 31 34 31 34 36 41 33
29 30 30 28 26 27 27 24 23 25 20 16 15 17 13 12 9 10 11 12 19 21 21 23 23 22 21 19 20 23 24 27 27 31 32 33 33 32 33 40 46 51 41
31 32 31 30 29 28 32 33 30 26 24 26 25 22 22 25 20 16 15 18 23 26 30 30 29 27 24 23 23 25 26 26 31 33 33 36 37 38 39 46 52 56 45
33 34 32 34 37 37 33 34 34 30 30 30 31 23 20 21 18 21 22 22 23 29 30 32 31 32 31 31 30 30 29 27 29 32 35 35 38 41 41 46 53 58 52
28 31 41 48 48 28 33 34 32 33 33 35 36 36 34 29 26 27 27 25 24 27 29 30 31 33 34 34 33 32 31 32 31 29 27 33 37 42 44 45 50 56 56
30 40 48 32 27 18 29 33 35 36 36 35 36 39 40 41 37 33 33 35 35 35 35 39 40 41 44 43 41 39 37 35 32 30 25 29 34 41 45 48 48 51 54
41 44 48 50 47 32 28 31 33 32 32 36 37 38 42 45 44 43 42 41 43 44 45 44 45 46 48 49 47 50 52 52 47 38 33 34 33 36 42 46 49 47 46
44 42 39 39 34 30 30 31 32 34 32 36 39 45 45 45 42 39 38 38 40 42 41 42 42 47 48 48 50 50 51 52 52 51 48 42 40 37 37 39 44 45 47
36 33 34 30 28 27 30 33 35 33 31 28 30 31 16 16 21 20 32 34 33 38 42 44 43 44 44 44 44 45 45 46 48 48 48 46 44 43 41 39 39 40 41
30 30 27 25 23 29 31 34 34 33 31 29 31 43 41 36 31 33 31 31 33 35 37 36 37 38 38 39 39 39 40 42 41 42 44 45 40 42 40 42 43 39 38
26 25 22 20 26 29 32 30 28 27 29 28 28 31 33 32 32 32 29 26 28 30 32 32 33 31 30 30 32 32 33 35 36 39 37 38 45 34 42 47 40 37 37
23 22 20 23 28 31 29 26 25 27 29 30 32 33 35 36 35 33 31 29 28 27 29 28 28 27 26 26 24 26 26 27 29 33 37 38 40 41 41 37 48 50 40
28 29 29 30 29 27 26 26 26 28 30 31 33 33 34 33 34 34 35 35 34 36 36 34 32 34 36 34 32 32 32 32 33 34 35 36 39 35 39 43 34 41 42
27 26 26 25 25 27 27 31 32 31 31 31 31 31 32 32 32 33 32 31 31 31 31 29 32 32 32 32 23 25 25 29 31 33 32 31 30 31 30 33 35 34 36
22 23 23 22 23 27 29 28 25 26 25 24 25 26 27 26 26 28 30 28 29 30 29 29 25 24 26 29 23 21 26 25 29 31 31 30 30 31 30 29 31 32 30
22 21 20 22 22 25 24 21 18 17 15 14 15 16 18 20 20 20 21 23 22 23 25 26 25 23 24 22 21 23 22 24 24 24 24 26 28 29 26 27 26 27 29
18 21 22 19 18 17 16 14 13 10 8 8 8 7 8 10 11 13 13 15 15 15 17 17 19 21 20 19 16 18 20 18 19 20 21 21 22 24 25 24 25 24 24
17 16 16 16 17 16 11 10 10 6 5 3 2 3 2 3 4 6 6 6 4 5 7 11 13 13 14 15 14 17 14 15 16 18 18 18 19 20 19 22 24 23 21
21 20 20 20 18 17 13 11 11 9 8 7 6 7 6 7 6 8 5 4 4 4 6 1 6 9 10 9 9 8 8 11 12 14 16 14 13 13 17 17 19 20 20
21 22 22 20 20 19 18 17 17 15 13 12 11 10 10 6 7 7 11 9 13 17 15 13 11 17 17 14 13 14 10 9 9 8 10 13 12 12 10 12 15 16 16
24 23 23 20 19 21 21 24 23 21 17 16 14 13 13 12 9 13 15 15 11 9 16 18 20 20 23 24 22 22 22 21 20 20 17 22 21 20 17 13 16 18 19
21 23 26 26 27 19 17 28 26 26 22 18 16 19 22 22 22 24 26 29 28 28 29 28 28 31 28 27 29 28 34 31 27 26 28 31 35 32 28 26 24 31 32
26 25 25 24 22 24 23 23 28 26 26 25 26 29 28 28 29 30 32 34 31 27 30 34 36 35 34 34 33 37 45 38 42 35 36 41 39 39 36 36 38 40 38
32 31 31 28 28 28 30 31 30 31 32 32 33 34 37 38 39 36 33 36 38 39 37 34 39 40 39 40 35 44 46 47 46 50 52 47 50 41 42 41 43 45 46
41 40 36 36 35 34 37 39 38 37 39 42 45 42 41 40 39 41 48 47 47 50 49 51 47 47 48 49 51 55 52 51 58 63 55 50 51 50 49 50 49 54 53
48 47 47 45 44 46 48 46 42 42 47 50 53 53 48 48 46 48 48 49 53 55 56 58 59 58 59 60 64 68 66 64 62 57 62 55 50 58 57 58 59 54 57
Wind_Direction
94 107 109 111 119 130 132 125 121 114 111 126 138 133 110 99 88 36 21 49 56 56 60 68 69 74 79 79 73 64 64 54 49 50 50 43 33 28 27 15 15 10 357
112 110 114 115 116 116 112 111 111 110 120 118 110 95 89 74 71 56 71 74 65 63 74 75 76 78 80 73 69 63 67 58 55 56 53 47 38 31 33 27 28 20 20
113 114 116 113 108 104 109 111 105 105 97 94 89 77 68 63 57 59 80 82 81 78 78 79 75 72 69 69 68 69 72 66 61 57 52 47 40 39 43 39 35 32 36
119 117 111 102 103 105 108 100 96 98 92 86 82 84 98 95 78 69 74 82 83 82 82 81 78 75 74 74 74 75 75 70 65 58 51 47 46 44 48 46 45 42 49
121 116 109 113 97 88 97 102 99 98 92 85 82 82 81 85 84 78 77 80 85 85 82 81 76 73 74 74 73 72 72 69 66 63 51 49 53 52 52 52 53 51 60
115 116 115 133 120 160 103 102 97 96 95 91 89 83 82 82 85 82 78 80 84 86 85 84 82 81 79 77 76 72 67 68 67 68 67 60 58 56 57 59 62 63 64
117 116 113 112 131 123 106 96 99 98 95 93 92 92 84 79 79 81 81 81 83 86 86 84 82 82 79 77 75 72 69 65 62 61 63 62 61 59 62 63 66 70 73
118 113 115 113 108 103 101 100 101 103 103 100 101 94 89 84 70 75 78 79 81 83 81 83 85 84 82 76 74 72 68 64 63 62 62 65 64 62 62 64 69 72 74
116 113 111 111 101 102 106 105 100 97 97 106 106 108 76 4 120 89 76 82 82 78 82 86 86 85 83 80 76 72 67 65 64 63 62 63 67 68 66 63 64 71 76
116 115 112 104 101 106 109 108 98 96 95 95 92 85 97 108 101 90 99 88 86 85 87 89 80 83 85 81 76 73 67 63 58 55 54 56 63 69 69 69 69 66 69
120 121 114 105 107 112 113 111 96 94 93 93 89 88 95 99 98 96 94 93 88 86 87 85 81 82 78 78 73 71 67 60 56 52 46 52 55 57 65 64 64 71 76
109 114 119 113 114 114 109 99 96 95 97 98 96 95 95 94 94 96 95 91 90 90 88 86 85 79 78 74 69 65 63 54 51 53 51 47 55 52 51 56 62 59 61
113 106 111 116 115 112 106 103 101 101 106 106 106 102 97 97 92 91 90 88 84 83 83 85 86 77 73 70 65 55 55 57 54 58 60 58 57 57 54 58 57 60 58
113 110 112 109 111 112 110 111 106 104 105 103 101 104 103 98 92 84 83 82 79 77 78 79 80 78 72 67 62 42 55 60 59 57 58 58 52 56 62 64 57 53 50
115 113 113 116 119 124 118 113 107 102 99 101 99 98 98 97 91 86 83 81 83 77 78 73 71 71 68 46 61 70 52 54 54 54 54 54 57 54 58 51 51 52 54
120 121 122 119 127 132 132 127 111 108 95 94 96 93 95 100 97 95 91 89 86 83 83 76 71 64 70 75 67 62 58 58 53 49 46 45 47 49 54 53 45 47 46
142 140 142 140 141 143 144 138 134 121 113 109 114 116 98 105 104 99 98 94 90 87 82 75 70 61 55 57 64 65 62 64 64 58 55 51 54 53 50 49 47 49 47
172 168 172 168 166 169 173 165 167 173 171 165 120 170 204 132 130 118 107 99 103 103 94 76 64 53 50 43 29 43 58 64 61 57 57 56 45 37 33 36 37 35 30
203 199 199 199 200 197 210 205 217 220 226 242 256 260 267 277 273 281 313 299 313 296 301 325 41 27 8 11 11 25 13 18 32 24 35 30 39 41 31 25 26 26 24
210 211 213 209 210 218 227 234 229 234 238 243 255 275 268 273 286 259 265 290 304 300 302 294 295 320 311 305 312 320 321 324 317 333 348 359 357 8 15 20 15 3 357
227 225 225 229 229 234 243 244 235 230 233 244 253 258 248 258 258 276 280 301 276 305 313 321 302 309 322 307 306 295 306 307 305 294 302 320 322 327 332 330 342 352 347
224 226 231 239 240 241 251 242 241 242 234 229 242 262 271 271 268 281 295 296 302 303 311 313 307 311 310 305 307 301 305 301 304 312 301 300 306 303 302 305 309 317 319
228 226 229 235 246 251 248 242 239 239 254 234 259 263 265 268 269 267 277 288 282 275 289 298 296 290 293 297 293 302 307 296 303 298 301 303 305 303 298 301 299 301 302
243 240 243 244 248 256 258 256 256 256 255 268 275 277 280 279 259 260 272 285 277 277 282 288 289 283 278 284 285 297 297 295 290 295 301 297 298 296 293 295 298 296 300
242 245 248 254 254 260 254 263 263 262 266 280 278 274 273 274 277 277 271 272 273 278 280 283 280 281 281 283 281 283 286 290 288 292 290 293 297 295 294 293 292 295 293
248 248 250 253 257 260 262 260 265 273 273 282 284 277 272 273 275 279 280 276 279 286 293 288 280 283 283 283 282 283 285 287 291 294 289 284 285 290 296 294 291 290 289
Height
10921 10921 10922 10923 10925 10927 10931 10935 10938 10939 10941 10941 10941 10941 10942 10941 10939 10937 10935 10932 10929 10925 10922 10920 10918 10915 10914 10913 10911 10910 10907 10905 10902 10900 10896 10889 10882 10874 10867 10858 10844 10827 10807
10928 10928 10929 10930 10933 10935 10938 10941 10942 10943 10944 10945 10945 10945 10944 10943 10941 10939 10937 10934 10932 10929 10926 10924 10922 10920 10919 10917 10915 10913 10911 10909 10907 10903 10899 10892 10885 10878 10870 10859 10843 10825 10798
10934 10935 10936 10939 10942 10944 10945 10947 10947 10948 10950 10949 10949 10949 10948 10947 10945 10942 10940 10938 10937 10934 10931 10929 10927 10925 10923 10921 10920 10917 10915 10914 10911 10907 10903 10897 10889 10882 10874 10862 10848 10831 10806
10940 10941 10944 10953 10961 10958 10955 10953 10953 10954 10955 10954 10953 10953 10952 10952 10951 10948 10946 10945 10942 10939 10936 10934 10932 10931 10929 10926 10925 10923 10920 10917 10914 10911 10907 10902 10896 10888 10880 10870 10858 10844 10825
10948 10949 10957 10952 10954 10981 10969 10961 10960 10960 10962 10962 10960 10959 10958 10958 10958 10957 10954 10951 10948 10945 10943 10940 10938 10937 10935 10932 10931 10928 10925 10922 10919 10916 10913 10909 10903 10896 10888 10879 10870 10862 10851
10954 10958 10965 10940 10939 10998 10983 10969 10968 10969 10969 10967 10966 10965 10964 10963 10962 10963 10964 10960 10955 10951 10949 10948 10946 10944 10942 10939 10937 10934 10932 10928 10925 10922 10919 10915 10910 10905 10899 10891 10883 10879 10874
10962 10966 10974 10979 10992 10990 10983 10975 10975 10976 10975 10973 10973 10972 10973 10974 10974 10972 10972 10972 10966 10961 10958 10957 10955 10952 10950 10948 10945 10943 10940 10937 10932 10929 10926 10922 10917 10913 10910 10903 10897 10893 10892
10969 10972 10976 10981 10985 10985 10982 10981 10982 10983 10982 10980 10978 10982 10979 10979 10988 10984 10980 10982 10979 10972 10968 10965 10964 10961 10958 10957 10954 10952 10949 10946 10942 10938 10935 10930 10926 10922 10918 10914 10908 10905 10904
10977 10978 10980 10982 10985 10986 10986 10988 10988 10989 10988 10988 10987 10985 10982 10985 11004 10979 10994 10987 10987 10982 10977 10974 10973 10970 10966 10965 10963 10961 10959 10956 10952 10948 10944 10940 10936 10933 10929 10925 10920 10918 10915
10985 10985 10987 10988 10989 10990 10992 10994 10994 10995 10996 10993 10992 10993 10993 11000 10998 10993 10995 10994 10994 10989 10985 10982 10981 10979 10976 10973 10972 10970 10967 10964 10961 10957 10952 10949 10946 10942 10940 10937 10932 10929 10927
10990 10991 10993 10994 10994 10995 10997 10999 11001 11002 11001 11001 10998 10999 11001 11003 11003 10998 10997 11002 10998 10994 10990 10989 10987 10986 10984 10982 10980 10979 10975 10972 10969 10965 10961 10958 10953 10951 10948 10946 10942 10938 10937
10996 10997 10998 10999 11000 11002 11003 11005 11007 11008 11008 11008 11006 11005 11005 11004 11004 11006 11008 11006 11002 10999 10995 10994 10993 10992 10990 10989 10987 10985 10982 10979 10975 10972 10968 10965 10962 10960 10957 10954 10951 10949 10946
11001 11002 11002 11004 11005 11007 11008 11009 11011 11012 11013 11015 11014 11013 11013 11013 11013 11013 11013 11011 11007 11005 11002 11000 10999 10998 10996 10995 10994 10993 10991 10986 10982 10978 10975 10973 10971 10969 10965 10961 10959 10956 10955
11007 11008 11009 11010 11011 11012 11013 11014 11015 11016 11018 11019 11019 11019 11019 11019 11018 11017 11015 11014 11012 11010 11009 11007 11005 11003 11001 11000 10988 10992 10999 10993 10989 10985 10982 10980 10977 10975 10972 10969 10967 10965 10962
11011 11013 11013 11015 11016 11017 11017 11019 11020 11021 11021 11022 11023 11022 11022 11021 11021 11020 11018 11017 11016 11014 11013 11011 11010 11008 11006 11020 11008 11005 11003 10997 10995 10991 10989 10986 10983 10980 10977 10975 10974 10972 10969
11015 11016 11018 11019 11020 11021 11021 11021 11022 11024 11024 11025 11025 11025 11024 11024 11023 11022 11021 11020 11019 11018 11016 11015 11014 11012 11010 11012 11009 11007 11004 11001 10998 10996 10994 10991 10988 10985 10982 10980 10978 10976 10973
11018 11019 11021 11022 11024 11025 11025 11024 11025 11025 11026 11026 11026 11026 11026 11025 11025 11024 11023 11022 11021 11020 11019 11017 11016 11016 11016 11014 11010 11007 11005 11002 11000 10999 10997 10995 10992 10989 10987 10984 10982 10980 10977
11018 11020 11021 11024 11025 11025 11025 11025 11026 11028 11027 11028 11027 11027 11026 11026 11025 11025 11024 11023 11022 11021 11020 11019 11017 11017 11017 11016 11015 11012 11009 11005 11002 11000 10998 10996 10994 10992 10990 10988 10985 10983 10980
11017 11019 11021 11021 11022 11023 11024 11025 11025 11026 11027 11028 11028 11027 11027 11026 11026 11024 11024 11023 11021 11021 11020 11019 11018 11017 11017 11016 11014 11013 11011 11009 11006 11003 11001 10998 10995 10993 10991 10989 10987 10985 10983
11013 11015 11016 11018 11019 11020 11020 11022 11023 11023 11024 11025 11026 11027 11027 11026 11025 11026 11025 11023 11022 11022 11021 11020 11019 11018 11016 11014 11013 11011 11010 11007 11006 11003 11000 10999 10997 10994 10991 10989 10986 10984 10982
11010 11012 11014 11016 11017 11018 11019 11019 11019 11020 11021 11022 11023 11023 11024 11025 11024 11023 11022 11021 11019 11019 11019 11019 11018 11016 11014 11011 11010 11007 11005 11004 11002 11000 10997 10995 10993 10992 10989 10987 10985 10983 10982
11005 11007 11009 11010 11012 11013 11014 11015 11016 11016 11016 11017 11019 11019 11020 11021 11020 11018 11017 11016 11016 11014 11013 11013 11013 11010 11009 11007 11006 11005 11000 10997 10996 10995 10992 10989 10986 10985 10982 10981 10979 10977 10975
11000 11002 11003 11005 11007 11008 11008 11009 11012 11012 11012 11012 11012 11012 11013 11013 11013 11011 11010 11010 11008 11007 11007 11007 11006 11004 11002 11001 10998 10996 10994 10992 10989 10986 10985 10981 10980 10976 10975 10973 10970 10968 10966
10994 10995 10997 10999 10999 11001 11001 11002 11003 11005 11005 11005 11004 11005 11004 11005 11003 11003 11004 11003 11001 10999 10999 10999 10997 10996 10993 10990 10989 10986 10983 10981 10978 10976 10972 10971 10966 10965 10963 10961 10959 10956 10954
10985 10988 10989 10991 10992 10993 10993 10994 10995 10994 10995 10995 10995 10995 10994 10994 10993 10993 10994 10992 10989 10988 10988 10987 10986 10986 10985 10982 10978 10975 10971 10970 10966 10963 10963 10960 10954 10951 10949 10946 10946 10942 10940
10976 10978 10980 10980 10982 10982 10983 10984 10984 10985 10984 10983 10983 10983 10982 10982 10981 10980 10980 10980 10979 10976 10976 10974 10973 10972 10970 10968 10964 10961 10958 10953 10951 10950 10945 10945 10946 10940 10936 10933 10925 10927 10924